Location: ???????
(60.4260°N, 46.9069°E)
Time: 05:37:53
(UTC+00:00)

H-2A R/B - Pass Details

Date: 30 March 2020
Orbit: 529 x 653 km, 98.3° (Epoch: 05 June)

Event Time Altitude Azimuth Distance (km) Brightness Sun altitude
Rises 01:28:24 0° 20° (NNE) 2,932 6.7 -7.3°
Reaches altitude 10° 01:30:46 10° 28° (NNE) 2,002 6.0 -7.0°
Maximum altitude 01:34:52 39° 98° (E) 912 4.1 -6.5°
Drops below altitude 10° 01:38:48 10° 168° (SSE) 1,917 5.0 -6.1°
Sets 01:41:01 0° 176° (S) 2,791 5.8 -5.8°
